Location: Erlach
(47.0430°N, 7.0996°E)
Time: 07:19:03
(UTC+00:00)

Cosmos 2333 - Pass Details

Date: 07 June 2020
Orbit: 829 x 866 km, 70.9° (Epoch: 07 July)

Event Time Altitude Azimuth Distance (km) Brightness Sun altitude
Exits shadow 02:52:58 - 201° (SSW) 2,872 6.4 -6.6°
Reaches altitude 10° 02:54:07 10° 200° (SSW) 2,430 6.0 -6.5°
Maximum altitude 02:59:41 80° 115° (ESE) 851 4.3 -5.8°
Drops below altitude 10° 03:05:20 10° 29° (NNE) 2,462 8.1 -5.1°
Sets 03:07:47 0° 29° (NNE) 3,406 9.0 -4.8°
